Home   Weather   Oberlin   Past weeks
Flag for USA

Past Weather in Oberlin, Ohio, USA — Yesterday and Last 2 Weeks

Now
53 °F

Sunny.


Feels Like: 49 °F
Forecast: 53 / 32 °F
Wind: 14 mph from North

Location: Lorain County Regional Airport

Current Time: Apr 2, 2020 at 4:10:45 pm

Latest Report: Apr 2, 2020 at 2:53 pm


Visibility: 10 mi

Pressure: 30.11 "Hg

Humidity: 39%

Dew Point: 29 °F

Location of OberlinLocation

Past Weather in Oberlin — Graph

°F

Oberlin Temperature Yesterday

Maximum temperature yesterday: 47 °F (at 3:53 pm)
Minimum temperature yesterday: 39 °F (at 3:53 am)
Average temperature yesterday: 42 °F

High & Low Weather Summary for the Past Weeks

 TemperatureHumidityPressure
High68 °F (Mar 20, 10:53 am)89% (Mar 19, 2:53 am)30.60 "Hg (Mar 19, 2:53 am)
Low23 °F (Mar 22, 4:53 am)37% (Apr 1, 4:53 pm)29.57 "Hg (Mar 29, 5:53 am)
Average44 °F74%30.02 "Hg
* Reported Mar 18 2:53 pm — Apr 2 2:53 pm, Oberlin. Weather by CustomWeather, © 2020

Note: Actual official high and low records may vary slightly from our data, if they occured in-between our weather recording intervals... More about our weather records

Oberlin Weather History for the Previous 24 Hours

Scroll right to see more
 ConditionsComfort  
Time TempWeatherWind HumidityBarometerVisibility
2:53 pm
Thu, Apr 2
53 °FSunny.14 mph39%30.11 "Hg10 mi
1:53 pm52 °FSunny.16 mph43%30.13 "Hg10 mi
12:53 pm51 °FSunny.16 mph44%30.14 "Hg10 mi
11:53 am50 °FSunny.13 mph52%30.14 "Hg10 mi
10:53 am50 °FSunny.9 mph57%30.14 "Hg10 mi
9:53 am47 °FSunny.12 mph64%30.14 "Hg10 mi
8:53 am43 °FSunny.9 mph74%30.14 "Hg10 mi
7:53 am38 °FSunny.6 mph79%30.12 "Hg10 mi
6:53 am35 °FClear.No wind82%30.10 "Hg9 mi
5:53 am36 °FClear.7 mph82%30.09 "Hg10 mi
4:53 am40 °FClear.7 mph77%30.08 "Hg10 mi
3:53 am39 °FClear.7 mph82%30.08 "Hg10 mi
2:53 am38 °FClear.6 mph79%30.08 "Hg10 mi
1:53 am38 °FClear.3 mph79%30.08 "Hg10 mi
12:53 am39 °FClear.6 mph76%30.08 "Hg10 mi
11:53 pm
Wed, Apr 1
41 °FClear.5 mph70%30.08 "Hg10 mi
10:53 pm42 °FPassing clouds.5 mph71%30.07 "Hg10 mi
9:53 pm43 °FOvercast.6 mph68%30.07 "Hg10 mi
8:53 pm44 °FOvercast.7 mph65%30.06 "Hg10 mi
7:53 pm44 °FOvercast.6 mph60%30.03 "Hg10 mi
6:53 pm45 °FOvercast.6 mph48%30.03 "Hg10 mi
5:53 pm46 °FOvercast.9 mph37%30.02 "Hg10 mi
4:53 pm47 °FOvercast.10 mph37%30.01 "Hg10 mi
Weather by CustomWeather, © 2020

See weather overview

Advertising